Location: Unspecified
(0.0000°N, 0.0000°E)
Time: 19:21:35
(UTC+00:00)

BlueWalker 3 - Pass Details

Date: 02 June 2023
Orbit: 494 x 513 km, 53.2° (Epoch: 05 June)

Event Time Altitude Azimuth Distance (km) Brightness Sun altitude
Rises 04:45:32 0° 323° (NW) 2,602 5.4 -16.7°
Reaches altitude 10° 04:47:43 10° 322° (NW) 1,720 4.5 -16.2°
Maximum altitude 04:51:36 74° 237° (WSW) 532 1.8 -15.3°
Drops below altitude 10° 04:55:31 10° 151° (SSE) 1,729 4.7 -14.4°
Sets 04:57:43 0° 149° (SSE) 2,616 5.7 -13.9°
